Simultaneous Nadir Overpasses (SNOs) Predictions

Prediction of SNOs between GOES-17 and AQUA Satellite Orbit:

Table of predicted SNOs for the next 14.0 days since TLE Epoch: 10/31/2020
Index Date Time (GOES-17) GOES-17 Lat,Lon AQUA Lat,Lon Distance(km) Time Diff (sec)
1 11/01/2020 22:36:23 -0.02,-137.21 0.47,-134.97 255.32 80
2 11/02/2020 10:54:59 0.02,-137.21 0.63,-140.12 331.37 80
3 11/04/2020 10:42:47 0.02,-137.19 0.04,-137.16 4.11 80
4 11/06/2020 10:33:16 0.02,-137.17 -0.62,-134.21 336.49 80
5 11/06/2020 22:52:00 -0.01,-137.16 -0.47,-139.40 254.87 80
6 11/08/2020 22:42:28 -0.01,-137.13 0.14,-136.44 77.82 80
7 11/10/2020 22:30:16 -0.01,-137.09 0.74,-133.48 410.08 80
8 11/11/2020 10:48:52 0.01,-137.09 0.36,-138.64 177.29 80
9 11/13/2020 10:39:21 0.01,-137.04 -0.31,-135.69 154.42 80
10 11/13/2020 22:58:04 -0.01,-137.03 -0.82,-140.88 437.46 80
